Plainview, TX

7:38 AM CDT on June 24, 2017 (GMT -0500)
Hale County

Weather History for KPVW - November, 2012

Change the Weather History Date:

Friday, November 30, 2012

  Actual Average Record
Temperature  
Mean Temperature 54 °F -  
Max Temperature 73 °F 54 °F 77 °F (1970)
Min Temperature 35 °F 29 °F 15 °F (2006)
Degree Days  
Heating Degree Days 11    
Growing Degree Days 4 (Base 50)    
Moisture  
Dew Point 26 °F    
Average Humidity 36    
Maximum Humidity 65    
Minimum Humidity 15    
Precipitation  
Precipitation 0.00 in - - ()
Sea Level Pressure  
Sea Level Pressure 30.00 in    
Wind  
Wind Speed 10 mph (West)    
Max Wind Speed 17 mph    
Max Gust Speed 23 mph    
Visibility 10 miles    
Events      
Averages and records for this station are not official NWS values.
T = Trace of Precipitation, MM = Missing Value Source: NWS Daily Summary

Daily Weather History Graph

Daily Weather History Graph

Search for Another Location

Airport or City:

Trip Planner

Search our weather history database for the weather conditions in past years. The results will help you decide how hot, cold, wet, or windy it might be!

Date:

Astronomy

Nov. 30, 2012 Rise Set
Actual Time 7:34 AM CST 5:37 PM CST
Civil Twilight 7:06 AM CST 6:04 PM CST
Nautical Twilight 6:35 AM CST 6:35 PM CST
Astronomical Twilight 6:05 AM CST 7:05 PM CST
Moon 7:33 PM CST (11/30) 9:07 AM CST (11/30)
Length of Visible Light 10h 57m
Length of Day
10h 03m
Waning Gibbous, 96% of the Moon is Illuminated
Nov 30
Waning Gibbous
Dec 6
Last Quarter
Dec 13
New
Dec 19
First Quarter
Dec 28
Full

Hourly Weather History & Observations

Time (CST) Temp. Windchill Dew Point Humidity Pressure Visibility Wind Dir Wind Speed Gust Speed Precip Events Conditions
12:15 AM 46.4 °F 42.4 °F 24.8 °F 43% 30.03 in 10.0 mi WSW 8.1 mph - N/A   Clear
12:35 AM 44.6 °F 39.7 °F 24.8 °F 46% 30.02 in 10.0 mi WSW 9.2 mph - N/A   Clear
12:55 AM 50.0 °F - 26.6 °F 40% 30.02 in 10.0 mi WSW 10.4 mph - N/A   Clear
1:15 AM 50.0 °F - 26.6 °F 40% 30.02 in 10.0 mi WSW 9.2 mph - N/A   Clear
1:35 AM 50.0 °F - 26.6 °F 40% 30.02 in 10.0 mi WSW 10.4 mph - N/A   Clear
1:55 AM 46.4 °F 41.9 °F 26.6 °F 46% 30.02 in 10.0 mi WSW 9.2 mph - N/A   Clear
2:15 AM 44.6 °F 38.8 °F 24.8 °F 46% 30.01 in 10.0 mi WSW 11.5 mph - N/A   Clear
2:35 AM 44.6 °F 39.7 °F 24.8 °F 46% 30.01 in 10.0 mi WSW 9.2 mph - N/A   Clear
3:15 AM 42.8 °F 37.0 °F 24.8 °F 49% 30.01 in 10.0 mi WSW 10.4 mph - N/A   Clear
3:35 AM 41.0 °F 34.7 °F 24.8 °F 53% 30.01 in 10.0 mi West 10.4 mph - N/A   Clear
3:55 AM 41.0 °F 34.7 °F 24.8 °F 53% 30.01 in 10.0 mi West 10.4 mph - N/A   Clear
4:15 AM 41.0 °F 35.2 °F 23.0 °F 49% 30.00 in 10.0 mi West 9.2 mph - N/A   Clear
4:35 AM 41.0 °F 35.8 °F 23.0 °F 49% 30.00 in 10.0 mi West 8.1 mph - N/A   Clear
4:55 AM 41.0 °F 35.2 °F 24.8 °F 53% 30.00 in 10.0 mi West 9.2 mph - N/A   Clear
5:15 AM 41.0 °F 34.7 °F 24.8 °F 53% 30.01 in 10.0 mi West 10.4 mph - N/A   Clear
5:35 AM 39.2 °F 33.6 °F 23.0 °F 52% 30.01 in 10.0 mi West 8.1 mph - N/A   Clear
5:55 AM 39.2 °F 33.6 °F 24.8 °F 56% 30.01 in 10.0 mi West 8.1 mph - N/A   Clear
6:15 AM 39.2 °F 34.2 °F 24.8 °F 56% 30.02 in 10.0 mi West 6.9 mph - N/A   Clear
6:35 AM 39.2 °F 35.0 °F 26.6 °F 61% 30.02 in 10.0 mi West 5.8 mph - N/A   Clear
6:55 AM 39.2 °F 35.0 °F 26.6 °F 61% 30.02 in 10.0 mi West 5.8 mph - N/A   Clear
7:15 AM 37.4 °F 32.1 °F 24.8 °F 60% 30.03 in 10.0 mi West 6.9 mph - N/A   Clear
7:35 AM 35.6 °F 32.8 °F 24.8 °F 65% 30.04 in 10.0 mi West 3.5 mph - N/A   Clear
7:55 AM 35.6 °F 29.9 °F 24.8 °F 65% 30.04 in 10.0 mi West 6.9 mph - N/A   Clear
8:15 AM 39.2 °F 35.0 °F 26.6 °F 61% 30.04 in 10.0 mi West 5.8 mph - N/A   Clear
8:35 AM 42.8 °F 38.0 °F 26.6 °F 53% 30.04 in 10.0 mi West 8.1 mph - N/A   Clear
8:55 AM 50.0 °F - 28.4 °F 43% 30.04 in 10.0 mi West 10.4 mph - N/A   Clear
9:15 AM 51.8 °F - 28.4 °F 41% 30.05 in 10.0 mi WNW 10.4 mph - N/A   Clear
9:35 AM 53.6 °F - 28.4 °F 38% 30.05 in 10.0 mi WNW 12.7 mph - N/A   Clear
9:55 AM 53.6 °F - 26.6 °F 35% 30.05 in 10.0 mi WNW 11.5 mph - N/A   Clear
10:15 AM 59.0 °F - 28.4 °F 31% 30.05 in 10.0 mi WNW 12.7 mph - N/A   Clear
10:35 AM 59.0 °F - 28.4 °F 31% 30.06 in 10.0 mi WNW 12.7 mph - N/A   Clear
10:55 AM 62.6 °F - 28.4 °F 27% 30.06 in 10.0 mi West 15.0 mph - N/A   Clear
11:15 AM 64.4 °F - 28.4 °F 26% 30.05 in 10.0 mi West 12.7 mph - N/A   Clear
11:35 AM 68.0 °F - 30.2 °F 24% 30.05 in 10.0 mi West 13.8 mph - N/A   Clear
11:55 AM 69.8 °F - 30.2 °F 23% 30.04 in 10.0 mi West 12.7 mph - N/A   Clear
12:15 PM 69.8 °F - 30.2 °F 23% 30.03 in 10.0 mi WNW 12.7 mph - N/A   Clear
12:35 PM 69.8 °F - 30.2 °F 23% 30.02 in 10.0 mi West 12.7 mph - N/A   Clear
12:55 PM 71.6 °F - 30.2 °F 22% 30.01 in 10.0 mi West 16.1 mph - N/A   Clear
1:15 PM 69.8 °F - 30.2 °F 23% 30.00 in 10.0 mi West 17.3 mph 20.7 mph N/A   Clear
1:35 PM 71.6 °F - 30.2 °F 22% 29.99 in 10.0 mi West 15.0 mph 20.7 mph N/A   Clear
1:55 PM 73.4 °F - 30.2 °F 20% 29.99 in 10.0 mi West 15.0 mph - N/A   Clear
2:15 PM 73.4 °F - 28.4 °F 19% 29.98 in 10.0 mi West 17.3 mph 21.9 mph N/A   Clear
2:35 PM 73.4 °F - 28.4 °F 19% 29.98 in 10.0 mi West 16.1 mph 23.0 mph N/A   Clear
2:55 PM 73.4 °F - 30.2 °F 20% 29.97 in 10.0 mi WNW 17.3 mph - N/A   Clear
3:15 PM 73.4 °F - 30.2 °F 20% 29.97 in 10.0 mi West 11.5 mph - N/A   Clear
3:35 PM 73.4 °F - 30.2 °F 20% 29.96 in 10.0 mi West 10.4 mph - N/A   Clear
3:55 PM 73.4 °F - 30.2 °F 20% 29.96 in 10.0 mi West 10.4 mph - N/A   Clear
4:15 PM 73.4 °F - 28.4 °F 19% 29.96 in 10.0 mi West 12.7 mph - N/A   Clear
4:35 PM 73.4 °F - 23.0 °F 15% 29.95 in 10.0 mi West 9.2 mph - N/A   Clear
4:55 PM 73.4 °F - 23.0 °F 15% 29.95 in 10.0 mi WSW 9.2 mph - N/A   Clear
5:15 PM 73.4 °F - 23.0 °F 15% 29.96 in 10.0 mi WSW 9.2 mph - N/A   Clear
5:35 PM 69.8 °F - 21.2 °F 16% 29.96 in 10.0 mi WSW 6.9 mph - N/A   Clear
6:15 PM 60.8 °F - 23.0 °F 23% 29.97 in 10.0 mi SW 6.9 mph - N/A   Clear
6:35 PM 59.0 °F - 23.0 °F 25% 29.97 in 10.0 mi SW 10.4 mph - N/A   Clear
6:55 PM 55.4 °F - 21.2 °F 26% 29.97 in 10.0 mi WSW 10.4 mph - N/A   Clear
7:15 PM 55.4 °F - 23.0 °F 29% 29.97 in 10.0 mi SW 8.1 mph - N/A   Clear
7:35 PM 55.4 °F - 23.0 °F 29% 29.96 in 10.0 mi WSW 10.4 mph - N/A   Clear
8:15 PM 50.0 °F - 21.2 °F 32% 29.97 in 10.0 mi SW 5.8 mph - N/A   Clear
8:35 PM 53.6 °F - 23.0 °F 30% 29.97 in 10.0 mi SW 10.4 mph - N/A   Clear
8:55 PM 53.6 °F - 23.0 °F 30% 29.97 in 10.0 mi SW 10.4 mph - N/A   Clear
9:15 PM 55.4 °F - 24.8 °F 31% 29.96 in 10.0 mi SW 9.2 mph - N/A   Clear
9:35 PM 53.6 °F - 23.0 °F 30% 29.97 in 10.0 mi SW 10.4 mph - N/A   Clear
10:15 PM 50.0 °F - 23.0 °F 35% 29.96 in 10.0 mi WSW 8.1 mph - N/A   Clear
10:35 PM 51.8 °F - 23.0 °F 33% 29.97 in 10.0 mi SW 10.4 mph - N/A   Clear
10:55 PM 50.0 °F - 23.0 °F 35% 29.97 in 10.0 mi SW 6.9 mph - N/A   Clear
11:15 PM 46.4 °F 42.9 °F 23.0 °F 40% 29.98 in 10.0 mi WSW 6.9 mph - N/A   Clear
11:35 PM 46.4 °F 41.9 °F 23.0 °F 40% 29.98 in 10.0 mi WSW 9.2 mph - N/A   Clear